Гарлок

США     35°25′07″N   117°51′03″W
темп.,
°C
ветер,
м/с
пор.,
м/с
влажн.,
%
обл.,
%
осадки,
мм/ч
давл.,
гПа
погр.,
м
16 октября, сб
сб1623:00+14св22140 0.0 102111
02:00+13ссв22150 0.0 102111
05:00+11с22170 0.0 102011
08:00+14с22150 0.0 102017
11:00+20св34100 0.0 1019608
14:00+24всв3490 0.0 10161293
17:00+24в2380 0.0 10141685
20:00+17вюв22130 0.0 101511
17 октября, вс
вс1723:00+15ссз11151 0.0 101611
02:00+13ссв111610 0.0 101511
05:00+12ююз11188 0.0 101411
08:00+15ююз22152 0.0 101410
11:00+21ююз5710100 0.0 1013951
14:00+23ююз1213977 0.0 10091425
17:00+21ююз1113140 0.0 10081088
20:00+14ююз68260 0.0 1010175
18 октября, пн
пн1823:00+12ююз45315 0.0 101171
02:00+10юз57440 0.0 1010114
05:00+8юз610530 0.0 1010162
08:00+7юз696731 0.0 1011296
11:00+14юз67443 0.0 10111182
14:00+17юз67261 0.0 10081573
17:00+16з65284 0.0 10091016
20:00+10юз34460 0.0 101270
19 октября, вт
вт1923:00+9юз22500 0.0 101521
02:00+8юз22535 0.0 101511
05:00+7зюз11550 0.0 101510
08:00+10с11435 0.0 101616
11:00+16св22290 0.0 1016664
14:00+19в22200 0.0 10141394
17:00+20ююв12196 0.0 10131459
20:00+14юз223044 0.0 101511
20 октября, ср
ср2023:00+13юз113314 0.0 101611
02:00+12зюз113619 0.0 101610
05:00+10зюз114012 0.0 101711
08:00+13юз113468 0.0 101811
11:00+19в1124100 0.0 1018802
14:00+22ю121997 0.0 10161428
17:00+22ююз2218100 0.0 10151262
20:00+17зюз2225100 0.0 101711